Simultaneous Nadir Overpasses (SNOs) Predictions

Prediction of SNOs between FY3D and METOP-C Satellite Orbit:

Table of predicted SNOs for the next 14.0 days since TLE Epoch: 12/10/2022
Index Date (FY3D) Time (FY3D) Lat,Lon (FY3D) SZA (FY3D ) Date (METOP-C) Time (METOP-C) Lat,Lon (METOP-C) SZA (METOP-C ) Distance(km) Time Diff (sec)
1 12/21/2022 20:50:31 -75.11, 41.12 81.47 12/21/2022 20:51:36 -75.08, 44.60 81.56 99.72 65
2 12/21/2022 21:41:13 74.88,-150.92 98.29 12/21/2022 21:42:21 74.88,-148.64 98.25 66.35 68
3 12/21/2022 22:31:55 -74.74, 16.80 81.86 12/21/2022 22:33:06 -74.67, 18.13 81.96 39.93 71
4 12/21/2022 23:22:37 74.51,-175.27 97.90 12/21/2022 23:23:51 74.47,-175.08 97.85 7.38 74
5 12/22/2022 00:13:21 -74.46, -7.83 82.15 12/22/2022 00:14:32 -74.46, -7.78 82.16 1.76 71
6 12/22/2022 01:04:07 74.43, 159.57 97.81 12/22/2022 01:05:13 74.45, 159.53 97.83 2.69 66
7 12/22/2022 01:54:52 -74.43, -33.12 82.19 12/22/2022 01:55:54 -74.44, -33.17 82.18 1.89 62
8 12/22/2022 02:45:39 74.44, 134.15 97.83 12/22/2022 02:46:35 74.43, 134.13 97.81 1.55 56
9 12/22/2022 03:36:24 -74.44, -58.53 82.18 12/22/2022 03:37:16 -74.42, -58.56 82.20 2.63 52
10 12/22/2022 04:27:10 74.41, 108.87 97.79 12/22/2022 04:27:57 74.41, 108.74 97.79 3.84 47
11 12/22/2022 05:17:56 -74.45, -83.95 82.16 12/22/2022 05:18:37 -74.45, -83.83 82.17 3.77 41
12 12/22/2022 06:08:42 74.42, 83.45 97.81 12/22/2022 06:09:18 74.44, 83.47 97.82 2.08 36
13 12/22/2022 06:59:27 -74.42,-109.24 82.20 12/22/2022 06:59:59 -74.43,-109.22 82.19 1.02 32
14 12/22/2022 07:50:14 74.43, 58.04 97.82 12/22/2022 07:50:40 74.42, 58.08 97.80 2.23 26
15 12/22/2022 08:40:59 -74.43,-134.65 82.19 12/22/2022 08:41:21 -74.41,-134.61 82.21 3.07 22
16 12/22/2022 09:31:45 74.40, 32.75 97.78 12/22/2022 09:32:02 74.40, 32.69 97.78 1.79 17
17 12/22/2022 10:22:30 -74.40,-159.94 82.22 12/22/2022 10:22:43 -74.39,-160.01 82.23 2.25 13
18 12/22/2022 11:13:17 74.41, 7.33 97.80 12/22/2022 11:13:23 74.42, 7.42 97.81 3.16 6
19 12/22/2022 12:04:02 -74.41, 174.64 82.21 12/22/2022 12:04:04 -74.41, 174.73 82.21 2.60 2
20 12/22/2022 12:54:48 74.37, -17.96 97.76 12/22/2022 12:54:45 74.40, -17.97 97.79 3.30 3
21 12/22/2022 13:45:33 -74.37, 149.36 82.25 12/22/2022 13:45:26 -74.39, 149.34 82.23 2.30 7
22 12/22/2022 14:36:20 74.39, -43.37 97.77 12/22/2022 14:36:07 74.38, -43.36 97.77 0.53 13
23 12/22/2022 15:27:05 -74.39, 123.94 82.23 12/22/2022 15:26:48 -74.37, 123.94 82.25 1.49 17
24 12/22/2022 16:17:51 74.35, -68.66 97.73 12/22/2022 16:17:29 74.36, -68.76 97.75 3.12 22
25 12/22/2022 17:08:36 -74.35, 98.65 82.27 12/22/2022 17:08:10 -74.35, 98.55 82.27 3.06 26
26 12/22/2022 17:59:23 74.36, -94.08 97.75 12/22/2022 17:58:50 74.39, -94.02 97.78 3.32 33
27 12/22/2022 18:50:08 -74.36, 73.24 82.26 12/22/2022 18:49:31 -74.38, 73.28 82.24 2.36 37
28 12/22/2022 19:40:55 74.38,-119.49 97.76 12/22/2022 19:40:12 74.37,-119.41 97.76 2.46 43
29 12/22/2022 20:31:40 -74.38, 47.82 82.24 12/22/2022 20:30:53 -74.36, 47.89 82.26 2.79 47
30 12/22/2022 21:22:26 74.34,-144.78 97.72 12/22/2022 21:21:34 74.35,-144.81 97.74 1.16 52
31 12/22/2022 22:13:11 -74.34, 22.53 82.28 12/22/2022 22:12:15 -74.34, 22.50 82.28 1.04 56
32 12/22/2022 23:03:58 74.36,-170.20 97.74 12/22/2022 23:02:56 74.33,-170.20 97.72 2.92 62
33 12/22/2022 23:54:43 -74.35, -2.88 82.27 12/22/2022 23:53:36 -74.37, -2.77 82.25 3.77 67
34 12/23/2022 00:45:29 74.32, 164.52 97.70 12/23/2022 00:44:18 74.31, 164.41 97.70 3.49 71
35 12/23/2022 01:36:14 -74.32, -28.17 82.31 12/23/2022 01:34:59 -74.30, -28.28 82.32 4.11 75
36 12/23/2022 02:26:56 74.09, 139.73 97.46 12/23/2022 02:25:44 74.09, 138.52 97.49 36.87 72
37 12/23/2022 03:17:37 -73.89, -52.47 82.75 12/23/2022 03:16:28 -73.94, -54.53 82.67 63.70 69



Historial Predications of SNOs between FY3D and METOP-C
